CZ-3B DEB, 40164

Orbit data source: Space-Track

CZ-3B DEB, 40164 is space debris in HEO originally from a launch on Sat, 04 Sep 2010 UTC launched from the Xichang Space Center, China (XSC). Debris objects in space refer to the collection of defunct objects orbiting the Earth. Examples of debris include non-operational satellites, rocket bodies, and fragments generated from explosions, collisions, or faulty payload assembly.

Loading next visibility...
Identifier
40164, 2010-042R
Orbit
HEO
Country
Flag of CNCN / PRC
Related business
Manufacturer
CALT
Mission
Spacecraft
Bus & Motor
Unknown
Mass
Unknown
Launch date (UTC)
2010-09-04 (16 years ago)
Launch vehicle
Unknown
Launch site
Xichang Space Center, China (XSC)
Object type
Payload
Rocket body
Debris
Shape & HBR
Unknown shape, 0.3 m
Radar Cross Section
Medium (>0.1 m² and <1 m²)

Expand to show TLE details & history
Last TLE update: 4 days ago

TLE from 4 days ago
0 CZ-3B DEB
1 40164U 10042R   26122.66638449 -.00000162  00000-0  00000-0 0  9991
2 40164  26.8009 248.3427 7290134   1.9397   2.0414  1.89865664 86409
Epoch: 2026-05-02T15:59Z
TLE epoch observation values (Epoch: 2026-05-02T15:59:35.619Z)
Latitude
10.00628°
Longitude
168.09678°
Altitude
1,281.324 km
Speed
9.466 km/s
True Right ascension
17h 54m 18s
True Declination
9° 57' 06"
Sunlit
Object was in full shadow at epoch
Visualization orbit readout
Latitude
Unknown
Longitude
Unknown
Altitude
Unknown
Speed
Unknown
Apparent Right ascension
Unknown
Apparent Declination
Unknown
Sunlit
N/A
Visualization observer readout
Local Sidereal Time
21:04:05
Azimuth
Unknown
Elevation
Unknown
Doppler factor
Unknown
Orbital elements
Apogee altitude
41,260.296 km
Perigee altitude
1,088.189 km
Semi-major axis
27,552.379 km
Eccentricity
0.72901
Inclination
26.8009°
RAAN
248.3427°
Arg. of periapsis
1.9397°
True anomaly
18.74241°
Mean anomaly
2.0414°
Eccentric anomaly
7.47619°
Mean motion
0.47457 °/min
Orbital period
758.57 mins
BSTAR
0
Loading maneuver chart data...
Computing Atmospheric mass density...
Loading historical data...
Loading historical data...
Loading historical data...
Loading historical data...
Loading historical data...
Loading historical data...
Loading historical data...

Documentation

Showing up to 5 results
|